Wind_Speed
39 37 36 35 34 33 32 31 30 29 29 28 27 27 26 25 24 23 22 21 20 19 18 17 17 17 16 16 16 17 17 16 16 16 15 15 15 15 16 17 18 20 22 24 26 28 31 32 32 32 32 33 34 35 37 38 39 41 43 45 47 48 49 50 50 49 48 47 47 46 45 45 44 43 42 41 39 38 37 36 36 35 34 31 29
40 38 37 36 35 33 32 31 31 31 31 30 30 28 27 26 25 23 23 22 21 20 19 18 18 18 18 17 17 17 17 17 17 17 17 17 17 17 17 18 20 22 24 26 28 31 33 34 34 34 34 35 36 38 39 41 43 45 47 48 49 49 49 49 48 47 46 44 43 43 43 43 43 42 40 39 38 37 36 35 34 33 31 28 25
41 39 38 37 35 34 34 34 34 34 33 32 31 30 28 27 25 24 24 23 23 22 21 20 20 19 19 18 18 18 18 18 18 18 19 19 19 19 19 20 22 24 26 28 30 32 34 35 36 36 37 37 39 40 42 44 46 48 49 49 49 48 47 45 44 44 43 42 41 40 40 40 41 41 39 38 36 35 35 34 31 30 28 24 20
42 41 40 39 37 36 36 36 36 36 35 34 32 31 29 28 26 26 26 25 24 23 22 21 20 19 19 19 19 19 19 19 20 20 21 21 21 22 22 23 24 26 28 30 32 34 36 37 38 38 39 40 41 43 45 47 49 50 50 48 46 44 42 41 40 40 40 40 40 40 40 39 39 39 39 37 36 34 33 31 29 26 23 19 16
43 43 42 41 40 38 38 38 38 37 36 35 34 33 31 29 28 28 28 27 25 23 21 20 19 18 18 19 19 20 21 22 22 23 24 24 24 24 24 25 27 29 31 32 34 36 37 38 39 39 40 41 44 46 48 49 49 48 47 44 42 40 38 38 37 36 37 38 39 41 41 40 39 39 38 37 35 33 30 27 24 22 19 16 16
45 44 44 43 42 40 40 40 40 39 38 37 36 35 33 31 31 30 30 28 26 23 21 19 18 18 19 20 21 21 23 24 25 26 27 27 27 27 26 28 30 32 33 35 36 38 39 39 40 40 41 43 46 48 49 49 47 44 41 39 38 37 37 36 35 35 36 37 38 40 41 41 39 38 37 35 35 33 28 22 20 19 18 17 18
46 46 45 45 44 43 42 41 41 40 40 39 38 36 35 34 33 32 31 29 26 23 22 20 20 20 21 22 23 23 24 26 27 28 29 29 29 29 29 31 33 34 36 37 39 39 40 40 41 42 44 46 47 48 47 45 42 39 37 36 36 36 36 37 36 36 36 37 37 38 39 40 39 37 35 34 33 31 25 19 17 17 18 18 19
46 47 47 46 46 45 43 42 42 42 41 41 40 38 37 36 34 33 32 30 27 25 24 24 24 24 24 25 25 26 26 27 28 29 30 30 31 32 33 34 34 35 37 39 40 41 41 42 43 45 47 48 48 45 41 38 35 34 34 34 35 36 37 37 37 37 37 38 38 38 38 38 37 35 33 32 32 28 20 16 17 18 19 20 22
47 48 49 48 47 46 45 44 44 44 44 43 42 40 39 38 36 34 33 31 28 27 27 27 27 27 27 27 28 28 28 28 28 29 30 31 32 34 35 35 36 37 38 39 40 42 43 44 45 47 48 47 44 40 36 33 31 31 32 33 35 36 37 38 37 35 36 38 39 38 38 37 35 33 31 31 29 23 16 15 18 20 22 24 25
48 49 50 49 48 48 47 47 46 46 46 45 44 42 41 39 37 35 34 32 30 29 28 28 29 30 29 29 30 30 30 29 29 29 30 31 33 34 35 36 37 38 39 39 41 42 44 46 47 48 47 44 39 35 32 30 30 30 31 33 34 36 37 37 36 33 34 36 37 38 37 36 34 31 29 28 26 19 15 16 19 21 25 27 29
49 50 50 50 50 49 49 48 48 48 48 47 46 45 43 42 40 37 35 34 32 31 30 30 31 31 31 31 31 31 30 29 29 30 31 32 33 33 35 36 38 39 39 40 42 44 46 47 48 46 43 38 34 31 30 29 29 29 30 32 33 35 37 37 36 33 33 35 36 36 36 36 35 31 27 25 22 17 15 17 20 23 26 29 32
50 50 51 51 51 51 50 49 49 49 49 48 47 46 45 44 42 40 38 36 35 34 33 33 33 33 33 32 32 31 30 30 30 31 32 33 34 34 35 36 38 39 40 42 44 46 47 47 46 42 38 34 31 30 30 30 30 31 31 32 33 35 36 37 35 33 33 36 37 36 35 35 35 31 26 22 19 17 18 20 22 24 26 30 33
47 49 51 52 53 53 51 50 50 49 49 48 47 46 45 45 44 42 40 38 38 37 35 35 35 35 35 34 33 32 31 30 31 31 32 34 35 36 36 37 38 39 41 43 45 47 47 45 41 37 33 31 30 31 32 32 33 33 33 34 35 35 37 36 34 33 34 36 36 35 34 34 34 31 26 21 19 19 21 24 26 29 30 32 33
42 45 49 52 53 53 53 52 51 50 50 48 47 46 46 46 45 43 42 41 40 39 38 37 37 37 36 35 34 32 31 31 31 32 33 35 36 37 38 38 40 41 42 44 46 45 43 40 36 33 31 30 31 33 34 34 36 36 36 37 37 37 39 36 33 35 36 36 35 34 32 32 32 31 27 24 22 22 23 27 31 32 32 32 30
39 42 45 50 53 54 54 54 53 52 51 49 48 47 47 46 45 44 43 42 41 40 40 40 39 38 37 36 34 33 32 32 33 33 34 35 37 38 39 40 41 42 44 45 44 42 38 35 33 31 30 30 32 35 36 36 38 38 38 39 39 41 42 37 35 37 38 36 33 29 28 29 30 30 29 26 26 24 24 29 32 30 27 27 26
38 41 43 47 51 53 55 55 54 53 52 50 49 48 47 46 45 44 44 44 43 42 42 42 41 39 38 36 35 34 33 34 34 34 34 35 37 39 41 42 44 45 45 43 40 37 34 32 31 31 31 32 34 36 37 38 39 39 40 40 40 43 44 39 38 39 38 34 28 26 30 33 32 31 30 29 29 27 26 30 31 25 22 22 23
36 39 41 44 47 51 53 54 54 53 52 50 49 48 47 46 45 45 45 44 44 44 43 42 41 41 40 37 36 35 35 35 35 35 35 36 38 39 41 43 45 44 42 38 36 34 32 30 30 31 32 33 34 35 36 37 38 38 39 41 42 45 46 42 41 42 40 35 31 33 38 40 37 37 36 34 34 33 30 31 30 25 23 23 24
35 36 39 42 44 47 50 51 52 52 51 50 49 48 48 47 46 45 46 46 46 45 44 42 41 42 41 39 37 36 36 36 36 36 37 38 39 40 42 44 43 41 37 34 32 32 30 30 30 31 33 33 33 34 35 36 38 38 38 39 43 47 48 45 46 47 44 42 43 45 47 47 46 46 44 40 39 37 32 30 28 27 26 26 26
37 36 37 39 42 44 46 48 49 50 50 49 48 48 48 47 47 47 47 48 47 46 44 43 42 42 41 40 38 37 37 37 38 38 39 39 40 42 43 43 40 37 34 32 31 30 29 29 30 30 32 33 33 34 35 36 38 39 39 39 41 46 48 48 50 52 51 51 53 52 49 48 45 43 41 38 38 36 31 26 26 27 27 27 28
38 36 35 36 38 41 44 46 47 48 48 48 48 48 48 48 48 48 48 48 47 46 45 44 43 42 41 40 39 38 38 39 40 40 40 41 42 43 42 41 38 35 32 30 29 28 28 29 29 30 30 32 33 34 34 35 37 38 39 38 40 46 51 52 54 56 55 54 52 49 45 42 39 39 39 35 32 30 27 24 24 26 25 26 28
40 37 36 35 35 38 40 43 45 46 47 47 48 48 49 49 49 49 48 48 47 46 45 44 43 41 40 40 40 40 41 41 41 41 42 42 43 42 40 38 35 32 29 28 28 28 28 29 30 30 31 31 33 34 35 36 37 38 39 37 40 48 53 54 57 60 57 53 48 44 42 39 35 36 37 33 30 29 28 27 26 25 24 29 36
44 42 41 39 38 38 39 41 43 45 46 47 48 49 49 49 49 48 48 47 47 46 44 43 42 41 41 41 42 43 43 43 43 43 43 43 42 40 38 35 31 28 28 29 29 29 29 30 31 32 32 33 34 35 36 37 36 38 38 34 37 49 56 56 57 56 53 51 48 45 43 39 35 36 34 29 28 28 28 28 27 27 29 35 43
48 47 46 45 43 41 40 40 41 42 44 46 47 48 48 48 48 47 47 46 45 44 43 42 41 41 42 43 44 44 44 44 44 44 43 42 40 38 35 32 29 27 28 30 30 30 30 31 33 34 34 34 36 36 38 39 38 39 39 32 34 48 56 54 50 50 51 53 50 47 47 43 36 33 29 27 31 36 38 37 36 38 41 42 47
51 50 49 48 46 44 43 42 42 42 43 44 45 46 47 46 46 45 45 44 43 43 42 42 43 43 44 45 46 46 46 45 45 44 43 42 39 36 33 30 28 28 30 31 32 31 32 33 34 35 36 37 38 38 40 41 40 41 41 36 36 47 53 49 45 46 51 55 50 46 48 44 34 29 30 36 46 55 58 55 51 51 52 52 52
52 51 49 48 47 46 46 45 45 45 45 45 45 45 45 45 45 45 44 44 44 44 44 44 45 46 47 48 48 48 47 46 45 44 43 41 38 35 32 30 30 30 31 32 33 33 34 35 36 37 38 39 40 41 42 44 44 44 45 42 40 45 49 49 47 46 49 50 47 44 44 39 32 32 39 47 55 59 60 59 56 55 56 59 58
52 51 50 49 48 48 48 49 49 49 48 48 47 47 46 46 46 46 46 46 46 46 46 47 47 48 49 49 49 48 47 45 44 43 41 39 36 34 33 32 32 32 32 34 35 35 36 37 38 40 41 41 43 44 45 46 47 48 49 48 46 45 46 48 48 48 48 48 46 44 42 37 34 39 47 52 56 58 58 58 57 56 56 57 56
50 50 51 50 50 49 49 50 51 51 51 51 50 49 49 49 48 48 48 48 48 48 49 49 49 50 50 49 48 47 45 43 42 41 39 38 36 35 34 34 34 34 34 36 37 38 39 40 40 42 43 44 45 46 47 49 50 51 52 53 52 50 49 48 48 48 48 47 46 45 44 39 37 41 48 53 56 59 61 61 61 61 58 52 49
48 50 51 52 52 52 52 52 52 52 52 52 52 51 51 50 50 50 50 50 50 50 50 50 50 50 49 48 47 45 43 42 41 40 39 38 37 36 36 36 36 36 37 38 39 40 41 42 43 44 44 46 47 48 50 51 52 54 55 56 56 55 53 50 48 48 48 47 46 47 46 43 41 42 48 53 56 60 63 63 63 65 63 57 53
45 48 50 51 52 54 54 55 55 54 54 53 53 53 53 52 52 52 52 52 51 51 50 50 49 49 48 47 46 45 43 42 41 40 40 40 39 38 38 38 39 39 40 41 42 43 44 45 46 47 47 48 49 50 52 53 54 56 57 58 58 58 56 54 51 49 49 49 49 49 48 46 45 46 48 52 55 60 63 64 63 64 62 59 58
41 44 46 49 50 52 53 54 55 55 56 56 56 55 55 55 54 54 54 53 52 51 50 49 49 48 47 47 46 44 43 42 41 41 41 41 41 41 41 41 41 42 43 44 44 45 46 47 48 49 50 51 52 53 54 55 56 57 58 59 59 59 59 58 56 53 52 52 53 52 51 50 49 49 50 52 54 58 61 63 63 64 64 63 63
40 41 42 44 46 47 49 50 52 53 53 54 55 55 55 55 54 54 53 52 51 50 49 48 48 47 47 46 45 44 43 42 42 42 42 42 43 43 44 44 44 45 45 46 47 47 48 50 51 52 53 54 55 55 56 57 58 59 60 60 61 62 61 61 60 57 56 55 54 54 54 53 52 52 54 56 56 57 58 60 62 64 65 66 66
41 41 41 42 43 44 45 46 47 48 49 50 50 51 52 52 52 51 51 50 50 49 49 48 47 47 46 45 44 44 43 43 44 44 44 44 45 45 46 46 47 48 48 49 49 50 51 52 54 55 56 57 58 58 59 60 61 62 62 61 62 63 64 63 62 60 59 57 55 54 55 56 55 55 57 59 59 58 57 58 60 61 63 65 66
45 45 44 44 44 43 43 44 44 45 45 45 46 47 48 48 49 48 48 48 48 48 48 48 47 46 46 45 45 45 45 45 45 46 46 46 47 48 48 49 50 50 51 51 52 53 54 55 57 58 59 60 60 61 62 62 63 63 64 63 63 65 65 65 63 62 61 59 56 54 55 56 57 58 58 59 60 60 60 59 58 58 59 61 65
49 49 48 47 46 45 45 45 45 44 44 44 44 45 45 46 46 46 46 47 47 48 48 47 47 47 47 47 47 47 47 48 47 48 48 49 49 50 51 51 52 53 54 54 55 56 57 58 59 60 61 62 63 63 64 65 65 65 65 66 66 67 67 66 64 63 62 61 58 56 56 57 59 59 57 56 57 60 61 61 59 58 56 55 58
52 52 51 50 49 48 47 47 47 46 46 45 45 45 46 46 46 47 47 48 48 48 48 48 48 49 50 50 50 50 50 50 50 50 50 51 52 53 53 54 55 56 57 58 59 60 61 62 62 63 64 64 65 66 66 67 67 67 67 67 68 69 68 67 66 65 63 62 60 58 57 57 58 57 56 56 57 59 60 59 58 57 54 50 49
54 54 54 53 52 51 50 50 50 50 49 49 49 49 48 48 49 49 50 50 51 51 51 51 51 52 53 53 53 53 53 52 52 52 53 54 55 56 57 58 59 60 61 62 63 64 64 65 65 66 66 67 67 68 69 69 68 68 68 69 70 71 70 69 68 66 65 64 62 60 57 55 55 55 56 57 58 59 59 55 51 52 52 46 42
57 56 56 56 55 55 54 53 53 53 53 53 53 52 52 52 52 53 53 53 54 54 54 54 55 55 56 56 56 56 56 55 56 56 57 58 59 61 62 63 63 64 65 66 66 67 67 67 67 68 69 70 70 70 70 70 70 70 71 72 72 72 72 70 69 68 67 65 63 61 57 53 51 52 55 56 55 57 58 54 47 45 47 42 37
60 59 58 58 58 58 58 58 58 57 57 56 56 56 55 56 56 56 56 56 57 57 57 58 58 59 59 60 60 59 59 59 60 60 62 63 64 65 66 67 67 67 68 69 69 69 70 70 70 70 71 72 72 72 72 72 72 73 73 74 74 74 73 72 71 70 69 67 65 63 59 52 47 47 50 50 50 52 57 56 48 42 42 39 34
62 61 61 60 60 61 61 61 61 61 61 60 60 59 59 59 59 59 59 60 60 60 61 61 62 62 63 63 63 63 63 63 64 65 66 67 68 69 70 70 71 71 71 72 72 72 72 72 72 73 74 75 74 74 74 74 74 74 75 76 77 77 75 74 73 72 71 69 67 65 60 51 43 41 43 44 45 48 55 54 45 37 39 39 35
66 65 64 64 64 63 63 64 64 64 65 64 64 64 63 63 62 62 63 63 63 63 64 64 64 65 65 65 66 66 67 68 69 70 71 72 73 73 73 74 74 74 74 74 74 75 75 75 75 76 76 77 76 75 75 76 76 76 77 79 80 79 77 76 75 73 73 71 68 67 62 52 43 40 41 42 44 47 51 51 42 34 37 40 39
70 69 68 68 67 67 67 67 67 67 68 68 68 67 67 67 66 66 66 66 66 66 67 67 68 68 68 69 70 70 71 72 73 74 74 75 76 76 76 76 77 77 77 77 77 77 78 78 77 77 78 78 78 77 77 77 77 77 79 82 83 81 79 78 76 75 74 72 69 67 63 55 45 41 41 42 42 42 45 49 46 38 37 40 41
73 73 72 72 71 71 71 70 70 71 71 71 71 70 70 70 70 70 69 70 70 70 71 72 72 72 73 73 74 74 75 76 76 77 77 78 78 78 79 79 79 79 80 80 80 80 80 79 79 79 79 79 79 79 79 78 77 80 84 86 85 84 82 80 79 77 75 72 69 66 63 57 47 40 38 40 42 41 41 44 46 42 38 39 41
75 76 75 75 75 75 74 74 74 74 74 74 73 73 73 73 73 73 73 74 74 75 75 76 76 77 77 77 77 78 78 79 79 80 80 80 81 81 81 82 82 82 82 82 82 81 81 81 81 80 80 80 81 80 80 79 81 85 88 88 87 85 84 82 80 77 74 71 68 65 62 58 51 44 39 38 41 41 39 39 41 40 39 40 41
78 78 78 78 78 77 77 77 77 77 76 76 76 76 76 76 76 76 77 77 78 78 79 79 80 80 80 81 81 81 81 81 82 82 82 83 83 83 84 84 84 84 84 84 83 83 83 82 81 81 81 81 82 81 81 83 88 90 90 89 87 87 86 84 82 78 74 71 68 65 62 59 56 51 45 41 40 40 39 37 37 37 39 40 42
79 80 80 80 80 80 79 79 79 79 79 79 78 78 78 78 78 79 79 80 80 81 81 82 82 82 83 83 83 83 84 84 84 84 85 85 86 86 86 86 86 86 86 85 85 85 84 82 81 81 81 82 83 84 87 90 94 94 93 91 89 87 86 84 82 78 74 71 68 65 62 59 57 55 51 45 41 39 38 36 34 34 39 43 44
81 81 81 81 81 81 81 81 81 81 81 81 81 81 81 81 82 82 82 82 83 83 83 84 84 85 85 86 86 86 87 87 87 87 87 88 87 87 86 86 87 87 87 87 87 86 84 82 81 82 84 86 88 91 94 97 97 96 95 93 90 88 85 83 80 77 74 71 67 65 62 60 59 58 56 52 47 42 39 38 36 35 38 44 48
84 84 83 83 83 83 83 83 83 84 84 84 84 84 85 84 85 85 85 85 85 86 86 87 87 87 88 88 88 89 89 89 89 89 89 88 87 86 86 87 88 88 88 87 86 85 84 83 85 87 90 93 96 98 100 100 99 98 96 94 91 88 85 82 79 76 73 70 67 64 63 62 61 60 60 59 56 52 46 42 40 38 39 44 49
87 86 85 85 85 85 85 85 86 86 86 86 86 86 87 87 87 87 87 88 88 88 89 89 89 90 90 90 91 91 91 91 90 89 88 86 86 87 87 88 89 88 88 86 85 85 86 89 92 94 97 99 101 102 102 101 100 99 97 94 91 88 85 82 79 76 73 70 67 65 63 63 63 63 63 63 62 61 56 49 44 41 41 44 48
90 90 89 88 88 88 88 88 88 88 88 88 88 88 88 88 89 89 89 90 90 90 91 91 91 92 92 91 91 91 91 90 90 89 88 88 89 90 90 90 90 89 88 88 88 91 94 97 99 100 101 102 103 103 103 102 101 99 97 94 91 87 84 81 78 75 72 70 67 66 65 65 65 66 66 67 67 67 66 61 54 48 44 43 46
92 92 92 92 91 91 91 90 90 90 90 90 90 90 90 91 91 92 92 92 92 92 92 92 92 92 91 91 90 90 91 91 91 91 92 93 94 95 95 95 94 93 93 94 97 99 101 102 103 104 104 104 104 104 103 102 101 99 96 93 90 87 84 81 78 75 72 70 68 67 67 67 67 67 68 69 69 70 71 70 65 58 51 47 46
95 95 95 95 95 94 94 94 94 94 93 93 93 92 92 93 92 92 92 92 92 92 92 92 93 93 93 93 94 94 95 96 97 98 99 100 100 100 100 98 97 98 100 102 103 105 105 106 106 106 106 105 105 104 102 101 99 97 95 92 89 86 84 81 78 76 73 72 71 70 69 68 68 69 70 70 71 72 73 73 71 67 62 58 54
Wind_Direction
219 217 215 212 210 210 210 210 209 210 212 214 216 217 217 216 216 216 218 222 226 231 236 242 248 254 260 265 269 271 271 273 275 275 277 281 285 291 298 305 312 318 322 325 327 330 331 330 330 329 329 329 328 328 327 327 327 326 325 325 324 323 323 323 323 323 324 324 325 325 325 325 324 324 324 323 323 321 319 318 318 318 319 320 319
222 220 218 215 213 211 210 211 211 212 213 216 218 219 219 219 220 222 224 228 231 235 239 245 251 257 262 268 273 274 274 275 276 277 278 281 284 290 296 303 311 316 319 322 325 328 328 328 328 327 327 327 326 326 326 326 325 325 324 324 323 323 324 324 325 325 326 327 328 328 328 327 326 325 324 323 322 321 319 318 318 319 320 322 321
223 221 218 216 214 211 210 211 213 214 216 219 221 221 222 223 225 228 232 235 238 241 244 247 251 256 262 269 274 275 275 275 276 279 280 281 285 290 295 301 308 313 316 319 322 324 325 326 325 325 325 325 325 325 325 324 324 324 324 323 324 324 325 326 327 328 329 330 331 330 330 329 328 326 324 323 322 320 318 318 320 321 323 325 323
223 222 218 216 215 213 211 213 215 217 219 221 223 224 225 227 230 233 237 240 242 245 247 250 253 257 262 268 273 274 274 274 276 278 280 282 286 290 295 302 307 311 314 316 319 321 322 323 323 324 324 324 324 324 324 324 324 324 324 324 325 326 327 328 329 331 332 332 332 331 330 331 330 327 324 322 321 321 320 322 325 326 329 330 326
224 223 220 217 215 214 213 215 217 220 222 224 226 227 228 230 232 236 240 242 243 245 248 253 259 264 268 270 272 273 273 273 274 277 280 283 286 291 297 303 307 309 311 313 316 318 319 320 321 321 322 322 323 323 324 324 324 324 324 325 326 327 329 330 332 334 334 334 332 331 332 333 332 329 325 323 322 323 325 329 331 332 336 336 329
224 225 223 219 217 215 215 216 219 222 224 227 228 230 231 232 235 238 240 241 243 246 250 256 261 266 270 271 272 271 271 271 273 275 278 282 287 293 298 302 305 307 309 311 313 315 317 317 318 319 320 321 323 324 324 324 324 325 325 327 328 329 330 332 333 334 334 334 334 334 334 335 334 331 327 324 323 325 329 336 340 340 341 339 334
222 225 225 223 220 217 217 218 220 223 227 229 231 232 234 235 237 239 240 241 244 248 252 255 260 264 268 271 272 272 272 272 273 275 279 284 289 294 296 299 303 305 307 309 312 314 314 315 316 318 320 322 323 324 324 324 324 325 327 328 330 330 331 332 333 334 334 334 335 337 337 338 336 333 330 325 324 326 331 340 346 345 341 338 334
220 225 226 225 223 220 219 220 222 225 228 231 233 235 236 238 240 241 241 242 246 250 253 256 261 265 269 272 274 275 275 275 277 279 282 286 290 292 294 298 301 303 306 308 310 312 313 314 316 318 321 322 323 323 323 323 324 326 327 329 329 330 330 330 331 333 334 334 335 338 339 339 338 336 332 327 326 330 333 338 342 342 340 339 335
218 223 226 226 225 223 221 222 223 226 229 232 234 236 238 240 242 243 242 243 248 252 255 259 264 267 271 274 277 279 279 280 282 284 285 287 289 291 294 298 300 302 305 308 309 310 312 313 316 319 321 322 322 322 322 323 324 326 327 327 327 327 327 327 329 332 333 332 333 337 339 340 338 337 334 330 330 333 332 327 331 334 335 336 335
217 220 224 226 226 225 223 223 224 227 230 232 235 237 239 242 244 245 245 245 249 254 257 261 265 269 273 277 280 281 282 283 284 286 288 288 290 292 295 297 300 302 305 307 308 309 311 314 317 319 320 320 320 320 321 323 325 326 326 326 326 325 324 324 327 331 331 329 331 335 338 339 338 337 335 332 332 333 325 318 320 324 327 329 331
219 220 222 225 227 227 226 225 226 228 231 233 236 238 241 243 245 247 246 247 250 254 258 262 266 270 275 278 281 282 282 283 285 287 290 291 292 293 295 298 300 302 304 306 307 309 311 314 316 318 318 318 318 319 321 323 324 325 325 325 324 323 323 323 327 331 330 328 329 332 335 337 337 337 336 334 332 327 319 314 313 315 318 322 326
223 222 222 224 226 228 228 228 228 230 232 235 238 240 243 245 246 246 247 248 251 255 259 264 268 272 276 278 280 281 281 282 285 288 291 291 292 294 295 297 300 301 304 306 308 310 312 314 315 316 316 316 317 319 321 323 324 325 326 326 326 324 323 324 328 332 331 327 327 329 333 335 335 337 336 331 326 322 318 315 313 313 316 319 322
227 227 225 225 225 227 229 229 230 232 234 236 239 241 244 246 246 247 247 249 251 255 260 265 269 272 275 277 279 279 280 283 285 288 290 290 292 294 296 297 299 301 304 306 308 310 311 313 313 313 314 316 318 320 322 324 326 328 329 329 329 327 323 324 330 333 330 326 324 325 329 331 334 335 332 324 319 318 319 318 316 316 317 317 319
231 232 230 229 228 227 228 229 230 232 234 237 240 242 245 247 247 247 247 249 252 256 261 265 269 271 273 276 277 278 281 283 285 287 288 290 292 294 295 297 299 301 304 306 307 309 310 310 310 311 314 317 320 322 325 327 329 330 331 331 332 328 322 325 333 334 330 325 322 323 326 329 331 330 325 317 313 316 318 319 321 322 319 315 315
235 236 235 234 232 230 229 228 230 232 235 237 240 243 246 248 248 248 248 250 253 257 262 265 268 269 272 274 276 278 280 282 283 285 287 289 291 293 295 297 299 301 303 305 306 306 307 307 308 312 316 320 323 325 327 329 329 330 330 331 332 327 322 328 337 335 331 329 326 328 332 332 329 324 317 309 305 308 312 314 320 325 319 311 311
236 237 237 236 235 234 232 230 230 232 235 238 241 244 245 247 249 249 250 252 254 258 262 265 267 268 270 273 275 277 278 279 281 283 285 287 290 292 295 297 299 301 303 304 304 304 304 306 310 315 319 323 325 325 327 328 327 328 329 329 330 324 321 329 337 333 332 335 333 330 331 330 324 316 310 303 297 297 298 304 313 321 315 305 305
235 237 238 237 237 236 234 232 231 232 235 238 240 243 244 246 248 249 251 254 256 259 262 264 266 268 270 271 273 275 277 279 280 282 284 286 289 292 294 296 298 300 302 302 301 301 304 308 313 318 321 323 324 324 325 325 324 326 329 329 328 322 321 329 334 329 330 333 327 321 322 323 319 311 305 300 295 291 289 295 305 312 308 303 303
235 237 238 237 237 236 235 234 233 233 235 237 240 242 243 244 247 249 252 255 258 260 262 262 264 267 269 271 272 273 275 277 279 281 283 286 289 291 293 294 295 297 298 297 296 299 305 311 315 318 320 321 322 322 322 323 323 326 328 328 326 320 320 328 330 324 324 326 320 316 316 315 311 306 302 297 291 289 289 293 301 307 305 302 300
235 237 237 236 236 235 235 234 234 235 236 238 240 241 242 244 247 250 253 255 258 260 261 262 263 266 268 271 272 273 274 276 278 280 283 286 288 290 291 291 292 292 291 290 292 298 305 311 314 316 318 318 320 320 321 322 323 324 327 328 324 318 321 327 324 319 320 322 320 319 318 315 310 307 307 301 290 286 289 295 303 308 305 298 297
233 234 234 233 233 233 233 233 234 235 237 239 241 242 244 245 248 250 252 255 256 258 260 262 264 266 268 270 272 272 273 275 277 280 283 285 287 287 287 287 288 288 287 289 293 298 304 308 310 312 314 315 317 318 319 321 322 323 326 326 322 320 323 323 318 316 318 320 319 318 318 318 314 311 313 308 294 285 285 289 299 306 306 304 306
229 230 230 230 230 231 231 231 232 234 236 238 240 242 244 246 247 249 251 253 255 257 259 261 263 265 267 268 270 272 274 275 278 280 283 284 285 285 285 285 285 287 288 291 295 298 302 305 307 309 311 313 315 316 318 320 321 322 323 325 324 322 320 317 315 316 317 317 316 314 315 318 315 311 311 305 294 287 283 281 287 295 306 314 312
228 229 231 232 232 232 232 232 232 233 235 236 238 240 242 244 246 248 250 252 254 256 258 260 262 263 265 267 269 271 273 276 278 280 282 283 282 282 281 282 284 287 290 292 295 298 302 304 305 308 311 313 315 316 317 319 320 320 321 322 322 318 315 313 315 318 317 317 316 314 317 320 318 313 309 300 293 291 285 281 284 292 303 307 301
229 231 233 235 236 236 236 236 236 236 237 237 238 240 241 243 245 247 249 251 253 255 257 259 261 263 265 267 269 271 273 275 278 279 280 279 278 278 278 279 281 285 288 291 295 299 302 304 307 310 312 315 317 318 318 319 319 318 318 315 313 313 314 313 316 319 318 315 314 313 315 318 319 316 311 306 305 302 294 288 286 288 293 295 291
231 232 234 236 237 238 239 239 239 240 240 240 240 241 241 243 244 246 248 250 252 254 257 259 261 263 264 266 267 269 272 275 276 276 276 275 275 274 274 275 278 282 286 291 294 298 302 305 308 311 313 316 318 319 320 320 319 318 316 311 307 310 312 312 313 316 314 312 312 311 312 315 318 316 313 310 305 299 293 290 286 285 287 288 289
233 234 235 236 237 238 239 240 241 241 241 241 242 242 242 243 244 245 247 249 251 254 256 258 260 261 263 264 267 269 271 273 274 273 272 272 271 270 271 272 276 280 285 289 293 297 300 303 306 309 312 315 317 319 320 320 319 318 316 312 308 307 308 309 309 310 309 308 310 311 309 310 309 304 303 301 296 292 289 287 285 283 284 285 286
236 236 237 237 237 237 238 239 240 241 241 241 242 242 243 244 245 246 248 249 251 253 255 257 259 261 263 265 267 269 271 271 271 270 269 268 267 267 269 273 276 280 284 289 292 296 299 302 305 308 312 314 317 318 318 318 319 318 316 315 313 310 308 307 307 306 305 305 307 308 306 303 297 293 293 293 291 291 291 288 284 283 282 282 284
238 238 238 238 238 238 237 238 239 240 240 241 241 242 243 245 246 247 249 250 252 253 255 257 259 262 264 265 267 268 268 267 266 266 266 266 266 268 271 275 279 283 286 288 292 296 298 302 304 307 310 313 314 316 317 317 318 318 317 317 317 314 312 308 306 305 304 303 303 304 301 297 291 288 287 287 287 289 290 289 287 285 283 283 287
237 237 238 238 239 239 239 239 240 240 241 241 241 242 244 245 246 248 249 251 253 254 256 258 259 260 262 262 263 263 262 262 261 262 264 266 268 271 275 279 282 284 287 289 292 295 298 301 303 305 308 310 312 313 315 316 316 317 317 317 317 317 315 312 308 306 303 302 302 301 299 296 293 290 289 288 288 289 290 290 288 285 284 287 288
234 235 236 237 238 239 240 241 242 243 243 243 243 244 245 246 248 249 251 252 254 255 256 256 257 257 257 258 258 258 258 257 258 260 263 267 271 274 277 279 281 284 287 289 291 294 297 299 301 303 305 307 308 310 312 314 315 315 315 316 317 317 317 316 313 310 307 305 304 302 300 297 295 294 292 290 290 290 290 290 287 284 283 284 282
234 235 236 236 237 238 240 241 242 243 244 245 245 246 247 248 249 250 251 252 253 253 253 253 253 253 254 254 254 255 255 256 258 261 264 268 272 275 277 279 281 284 286 289 291 293 296 298 299 301 303 304 306 308 309 311 313 313 314 315 316 317 318 318 316 315 312 309 306 304 302 300 297 297 296 293 292 291 289 287 284 281 279 277 276
238 238 238 238 237 238 239 240 241 242 243 244 245 246 247 248 248 249 250 250 250 249 249 249 249 250 251 252 252 254 256 258 260 263 266 269 272 275 278 280 283 285 287 289 291 293 295 296 297 299 301 302 303 305 307 309 311 312 313 315 316 318 319 318 317 317 315 312 309 306 304 302 300 300 299 297 296 295 291 286 283 278 274 272 273
242 242 243 242 241 240 240 240 241 242 242 244 245 246 247 247 247 247 247 247 246 245 245 245 247 248 249 251 253 255 257 260 262 265 267 270 273 276 279 281 283 285 287 289 291 292 293 295 296 298 300 301 302 304 307 308 310 311 312 314 316 318 318 317 317 317 316 314 311 307 305 304 302 301 300 299 299 297 293 288 283 278 273 269 269
243 243 243 244 244 243 243 243 243 243 244 244 245 246 247 247 246 245 244 243 242 242 243 244 246 248 250 252 255 257 259 261 264 266 269 271 274 276 279 281 283 285 287 288 290 291 292 294 295 297 299 300 302 304 306 308 309 311 312 314 316 317 317 317 316 316 316 315 312 308 305 303 301 299 298 298 298 298 297 294 289 283 277 270 266
244 243 243 244 244 244 245 246 246 246 246 246 247 247 247 247 247 245 243 242 241 242 244 246 248 250 252 254 256 258 260 262 264 267 270 273 275 277 278 280 282 284 286 287 289 290 292 293 295 296 298 300 302 303 305 307 308 310 312 314 315 316 316 316 316 316 316 315 313 309 305 301 299 297 297 297 297 297 298 299 295 289 283 274 267
244 245 245 245 245 245 245 246 247 248 248 248 248 248 247 247 247 246 245 244 244 245 246 248 250 252 254 255 257 259 261 263 266 269 271 274 275 277 278 280 281 283 285 286 288 289 291 292 294 296 297 299 301 302 304 305 307 309 312 313 313 314 315 315 315 316 316 315 313 309 304 300 297 296 296 296 296 296 297 298 296 290 284 276 269
244 245 246 246 247 247 246 246 246 247 248 249 249 248 248 248 248 247 247 247 247 248 248 249 252 254 256 258 260 262 264 266 268 271 273 274 275 277 278 279 281 283 284 286 287 289 290 292 294 296 297 298 300 301 303 304 306 308 310 311 312 313 314 315 315 315 315 314 312 309 305 300 296 294 293 294 295 295 296 296 295 289 282 275 268
242 243 244 245 246 247 248 248 247 247 246 247 248 248 248 248 248 248 248 249 250 250 251 252 254 256 258 260 262 264 266 268 270 272 273 274 276 277 278 280 281 283 284 285 287 288 290 291 293 295 296 297 298 300 301 304 306 308 309 310 311 313 314 314 314 314 313 313 312 309 305 300 294 291 291 293 296 297 298 299 297 288 278 271 261
243 244 244 245 245 246 247 248 249 248 248 247 248 248 249 249 249 250 251 251 252 253 254 256 257 259 260 262 264 265 267 269 271 272 274 275 276 277 279 280 281 283 284 285 287 288 290 291 292 294 294 296 297 299 301 303 305 307 308 309 311 312 313 313 313 312 312 312 311 309 307 302 295 291 292 296 300 301 299 300 297 285 273 266 256
245 246 246 246 246 247 247 248 248 249 249 249 249 250 250 251 251 252 253 254 255 255 256 257 259 260 261 263 265 266 268 269 271 272 273 275 276 277 278 280 281 282 284 285 286 288 289 291 292 293 294 295 297 299 301 303 305 306 307 309 310 312 312 312 312 311 311 311 310 308 307 304 298 294 294 297 299 295 292 293 292 277 264 260 255
245 246 247 248 248 248 249 249 250 250 250 251 251 251 251 252 253 253 254 256 257 258 258 259 261 262 263 265 266 267 268 269 270 272 273 274 275 277 278 279 281 282 284 285 287 288 289 291 292 293 294 296 297 299 301 302 303 305 307 309 310 311 311 311 311 311 310 310 309 308 307 306 301 296 294 296 298 296 293 294 293 274 255 252 252
243 244 245 246 247 248 249 250 250 251 251 252 252 253 253 253 254 255 256 257 259 260 261 262 263 263 264 265 266 267 268 269 270 272 273 274 276 277 278 280 281 282 284 285 287 288 290 291 292 294 295 296 297 299 300 301 302 304 306 308 310 310 310 310 310 310 309 309 308 306 306 306 303 298 297 299 302 302 299 298 294 280 257 248 245
242 243 244 245 246 247 248 249 249 250 251 252 253 253 254 255 256 257 258 259 260 261 262 263 263 264 265 266 267 268 269 270 271 272 273 275 276 278 279 280 282 283 285 286 287 289 290 292 293 294 295 296 297 298 298 299 301 304 306 308 309 309 309 309 309 308 308 307 306 304 304 304 301 297 297 298 297 295 293 292 289 279 263 252 247
242 243 243 244 245 246 247 248 249 250 250 251 252 253 254 255 256 257 258 259 260 261 261 262 263 264 265 266 267 268 269 270 272 273 274 276 277 278 280 281 283 284 286 287 288 289 291 292 293 294 295 296 296 297 297 298 301 304 306 307 308 308 308 307 307 307 306 305 304 303 303 303 301 299 298 299 298 293 289 288 284 273 260 253 252
243 244 244 244 245 246 247 248 249 250 251 252 252 253 254 254 255 256 257 258 259 261 262 263 264 265 266 266 267 268 270 271 272 274 275 276 278 279 281 282 284 285 286 288 289 290 291 292 293 294 294 295 295 295 296 299 302 304 305 306 306 306 306 306 306 306 305 304 303 302 302 302 303 303 303 304 303 297 289 285 281 269 256 250 250
246 246 246 246 247 247 248 249 250 251 252 253 254 255 255 256 256 257 258 259 260 261 263 264 265 266 267 268 269 270 271 272 273 275 276 277 279 280 282 283 284 286 287 288 289 290 291 292 293 293 293 293 294 295 297 300 302 304 304 305 305 305 305 305 305 305 304 303 302 302 302 302 303 304 304 305 304 299 291 286 280 267 254 247 247
248 248 249 249 250 250 250 251 251 252 253 254 255 255 256 257 258 258 259 260 261 262 263 264 266 267 268 269 271 272 273 274 275 276 278 279 280 281 283 284 285 287 288 288 289 290 290 290 290 291 292 294 295 297 298 300 302 303 303 304 304 304 303 303 303 303 303 302 302 302 302 302 303 304 305 304 304 302 296 289 281 268 256 248 246
249 250 250 251 252 252 253 253 254 254 254 255 256 257 257 258 259 260 260 261 262 263 264 265 266 267 269 270 271 272 273 275 276 277 278 279 281 282 284 285 286 287 288 288 288 288 288 288 289 291 293 295 296 298 299 300 301 302 302 302 303 303 302 302 302 301 301 301 301 301 301 302 302 303 304 303 303 302 299 292 283 273 263 254 250
251 251 252 252 253 254 254 255 255 256 256 257 258 259 259 260 261 262 262 263 264 265 266 266 267 268 269 271 272 272 273 274 276 276 277 279 281 283 284 286 286 286 286 286 286 286 287 288 290 292 294 295 296 298 299 299 300 300 301 301 301 301 301 301 301 301 300 300 300 300 301 301 301 302 302 302 302 302 300 296 289 280 271 263 257
251 251 252 252 253 254 255 255 256 257 258 258 259 260 261 262 263 263 264 265 265 266 267 268 269 270 271 271 272 273 274 275 276 276 278 279 281 282 283 284 284 284 284 284 285 286 288 290 291 293 294 295 296 297 298 298 298 299 300 300 300 300 300 299 299 299 299 299 300 300 300 300 301 301 301 301 301 301 301 299 295 290 284 276 268
251 251 252 252 253 253 254 255 256 257 258 259 259 260 261 262 263 264 264 265 266 267 267 268 269 270 271 272 273 274 275 276 276 277 278 279 280 281 282 282 282 282 283 284 286 287 289 290 292 293 294 295 295 296 297 297 298 298 298 298 298 298 298 298 298 298 298 298 298 298 298 298 299 298 298 299 299 300 300 300 299 296 292 287 280
250 251 252 252 253 253 254 254 255 256 257 258 259 260 261 262 263 263 263 264 266 267 268 269 269 270 271 272 273 274 275 275 276 276 277 278 279 280 281 281 282 283 284 286 287 288 290 291 292 293 293 294 295 295 296 296 296 297 297 297 297 297 297 297 297 297 296 296 296 296 295 296 296 296 296 297 297 298 299 300 301 300 298 295 292
Height
10975 10976 10979 10981 10984 10986 10988 10991 10993 10995 10996 10998 10999 11000 11001 11002 11003 11004 11004 11005 11006 11006 11007 11008 11008 11009 11009 11010 11010 11010 11010 11010 11010 11010 11010 11010 11011 11011 11010 11010 11010 11009 11009 11008 11007 11006 11004 11003 11001 10999 10997 10996 10994 10992 10990 10988 10986 10984 10981 10978 10975 10972 10969 10966 10963 10960 10957 10954 10950 10947 10944 10942 10939 10936 10934 10931 10929 10927 10924 10922 10920 10919 10918 10917 10916
10972 10974 10977 10979 10982 10984 10987 10990 10991 10993 10994 10995 10996 10997 10999 11000 11001 11002 11002 11003 11004 11005 11006 11006 11007 11007 11008 11008 11008 11008 11008 11008 11008 11008 11008 11008 11008 11009 11009 11008 11008 11007 11006 11006 11004 11003 11002 11000 10999 10997 10995 10994 10992 10989 10987 10985 10983 10980 10978 10975 10972 10969 10965 10962 10959 10955 10953 10950 10947 10945 10941 10938 10935 10932 10930 10928 10925 10923 10920 10919 10918 10917 10916 10914 10913
10970 10972 10974 10977 10980 10982 10985 10987 10989 10990 10991 10993 10994 10995 10997 10998 10999 11000 11000 11001 11002 11003 11004 11005 11005 11006 11006 11006 11006 11007 11007 11006 11006 11006 11006 11006 11006 11006 11007 11007 11006 11005 11004 11003 11002 11001 10999 10997 10996 10994 10993 10991 10989 10987 10985 10982 10979 10977 10974 10971 10968 10965 10962 10959 10956 10953 10949 10946 10944 10942 10939 10936 10932 10929 10927 10925 10923 10920 10918 10916 10915 10914 10913 10912 10911
10967 10969 10971 10974 10977 10979 10981 10983 10985 10987 10989 10991 10992 10993 10995 10996 10997 10998 10998 10999 11000 11001 11002 11003 11003 11004 11004 11004 11004 11004 11005 11005 11004 11004 11004 11004 11004 11004 11004 11004 11004 11003 11002 11001 11000 10998 10997 10995 10993 10992 10990 10988 10986 10984 10982 10979 10976 10973 10969 10967 10964 10962 10959 10957 10954 10951 10948 10944 10940 10937 10935 10933 10930 10927 10923 10921 10920 10918 10915 10914 10913 10911 10910 10909 10909
10964 10966 10968 10971 10973 10975 10978 10980 10982 10985 10987 10988 10990 10991 10993 10994 10995 10995 10996 10997 10998 10999 11000 11001 11001 11002 11002 11002 11003 11002 11002 11002 11002 11002 11001 11001 11002 11002 11002 11001 11001 11000 10999 10998 10997 10996 10994 10992 10991 10989 10988 10986 10983 10981 10978 10975 10973 10969 10966 10963 10961 10958 10957 10955 10953 10950 10947 10943 10939 10935 10932 10930 10927 10923 10920 10918 10916 10914 10912 10911 10910 10908 10908 10908 10907
10960 10963 10965 10967 10969 10972 10974 10976 10979 10982 10984 10986 10987 10989 10990 10991 10992 10993 10993 10995 10996 10997 10998 10998 10999 10999 10999 11000 11000 11000 11000 11000 11000 10999 10999 10999 10999 10999 10999 10999 10998 10997 10996 10995 10994 10993 10991 10990 10988 10986 10985 10983 10981 10978 10974 10971 10968 10965 10963 10960 10958 10955 10954 10952 10950 10948 10945 10942 10938 10934 10930 10927 10924 10920 10917 10915 10912 10911 10909 10909 10908 10907 10906 10906 10905
10956 10959 10961 10964 10966 10968 10970 10973 10976 10979 10981 10983 10984 10986 10987 10988 10989 10990 10991 10992 10993 10994 10995 10996 10996 10997 10997 10997 10997 10998 10998 10997 10997 10997 10997 10996 10996 10996 10996 10996 10995 10994 10992 10991 10990 10989 10988 10986 10985 10983 10981 10980 10978 10975 10972 10968 10965 10961 10959 10957 10955 10953 10951 10949 10947 10945 10942 10940 10937 10933 10929 10925 10921 10918 10915 10912 10910 10909 10908 10907 10907 10906 10905 10905 10904
10952 10955 10957 10960 10962 10964 10967 10970 10973 10975 10977 10979 10981 10982 10984 10985 10986 10987 10989 10990 10991 10991 10992 10993 10993 10994 10994 10994 10994 10994 10995 10995 10994 10994 10994 10994 10993 10993 10992 10992 10992 10991 10989 10988 10986 10985 10983 10982 10981 10979 10978 10976 10974 10972 10969 10966 10963 10959 10956 10954 10952 10950 10948 10946 10944 10941 10939 10936 10933 10931 10927 10923 10919 10916 10913 10911 10909 10908 10907 10906 10906 10905 10904 10903 10903
10948 10950 10953 10956 10958 10961 10964 10967 10969 10971 10973 10975 10977 10979 10980 10982 10983 10985 10986 10987 10988 10989 10989 10990 10990 10990 10991 10991 10991 10991 10991 10992 10992 10991 10991 10991 10990 10989 10989 10988 10988 10987 10986 10985 10983 10981 10979 10978 10977 10976 10974 10972 10970 10968 10965 10963 10960 10958 10955 10953 10950 10948 10945 10943 10941 10939 10936 10933 10930 10928 10925 10922 10918 10915 10912 10910 10908 10907 10906 10905 10904 10903 10902 10902 10902
10943 10946 10948 10951 10954 10957 10960 10962 10965 10967 10969 10971 10973 10975 10977 10979 10980 10982 10984 10985 10985 10986 10986 10986 10986 10987 10987 10988 10988 10988 10988 10989 10989 10988 10988 10988 10987 10986 10986 10985 10984 10983 10983 10982 10980 10977 10976 10974 10973 10972 10970 10969 10967 10964 10962 10960 10958 10956 10954 10951 10948 10946 10943 10940 10939 10937 10934 10930 10927 10925 10922 10920 10916 10913 10911 10909 10907 10906 10905 10905 10903 10902 10901 10900 10899
10939 10941 10944 10948 10951 10953 10955 10958 10961 10963 10965 10968 10970 10972 10974 10975 10977 10979 10981 10982 10982 10983 10983 10983 10983 10984 10984 10985 10985 10985 10985 10985 10985 10985 10984 10984 10984 10983 10983 10982 10981 10979 10978 10977 10976 10974 10972 10971 10970 10968 10967 10965 10963 10961 10959 10958 10956 10954 10952 10950 10947 10944 10940 10937 10936 10934 10932 10928 10925 10923 10920 10918 10914 10912 10910 10908 10906 10905 10904 10904 10903 10902 10900 10899 10897
10936 10938 10941 10944 10946 10948 10951 10954 10957 10960 10962 10965 10967 10969 10971 10972 10974 10976 10977 10978 10979 10980 10980 10980 10980 10981 10981 10982 10982 10982 10982 10982 10982 10982 10981 10980 10980 10980 10980 10979 10977 10976 10974 10973 10971 10970 10968 10967 10966 10965 10963 10962 10960 10958 10956 10955 10953 10952 10950 10948 10945 10941 10938 10935 10933 10932 10929 10925 10922 10920 10918 10916 10913 10910 10908 10906 10905 10904 10903 10902 10902 10901 10899 10898 10896
10933 10935 10937 10939 10941 10944 10948 10951 10954 10956 10959 10962 10964 10966 10967 10968 10970 10973 10974 10975 10975 10976 10977 10977 10977 10977 10978 10978 10979 10979 10979 10979 10979 10978 10977 10976 10976 10976 10976 10975 10974 10972 10971 10969 10967 10965 10964 10963 10962 10961 10960 10959 10957 10954 10953 10951 10950 10948 10947 10944 10942 10938 10934 10932 10931 10930 10927 10924 10920 10917 10916 10914 10911 10909 10907 10905 10903 10902 10901 10900 10899 10898 10897 10895 10893
10930 10932 10934 10936 10938 10940 10944 10947 10950 10953 10955 10958 10961 10962 10963 10964 10966 10969 10970 10971 10971 10972 10973 10974 10974 10974 10974 10974 10975 10975 10975 10975 10975 10975 10974 10973 10971 10971 10971 10970 10970 10969 10968 10966 10964 10962 10960 10959 10958 10958 10957 10955 10953 10951 10949 10948 10946 10944 10942 10940 10938 10934 10929 10929 10929 10928 10924 10921 10918 10915 10914 10912 10910 10907 10905 10903 10901 10900 10898 10896 10894 10893 10893 10891 10888
10926 10928 10930 10932 10934 10937 10940 10942 10946 10948 10951 10954 10956 10958 10959 10960 10962 10965 10966 10967 10968 10969 10969 10969 10969 10970 10970 10970 10971 10971 10972 10971 10971 10971 10971 10970 10968 10966 10966 10965 10965 10965 10964 10962 10961 10959 10958 10956 10955 10954 10953 10952 10950 10947 10946 10944 10942 10940 10938 10936 10933 10929 10924 10925 10926 10924 10920 10918 10915 10913 10912 10910 10908 10906 10903 10901 10898 10897 10895 10892 10890 10889 10888 10886 10884
10922 10924 10927 10929 10931 10933 10936 10939 10942 10944 10947 10950 10952 10953 10955 10956 10958 10960 10961 10963 10964 10964 10964 10964 10965 10965 10966 10967 10967 10967 10968 10968 10967 10968 10967 10966 10965 10963 10962 10961 10960 10960 10959 10958 10956 10955 10954 10953 10952 10950 10949 10948 10946 10944 10942 10941 10939 10937 10935 10932 10929 10924 10919 10920 10922 10919 10917 10915 10913 10911 10910 10908 10906 10903 10900 10897 10894 10893 10891 10889 10887 10885 10884 10881 10879
10919 10921 10923 10925 10927 10930 10932 10935 10938 10940 10943 10945 10947 10949 10950 10953 10954 10956 10956 10957 10958 10959 10960 10961 10961 10960 10961 10963 10963 10963 10963 10963 10963 10964 10963 10963 10962 10961 10959 10957 10956 10956 10955 10953 10952 10951 10950 10950 10949 10948 10946 10945 10944 10942 10940 10938 10936 10934 10932 10929 10925 10919 10915 10916 10917 10914 10913 10913 10911 10909 10906 10904 10902 10899 10896 10893 10890 10888 10887 10885 10883 10882 10880 10877 10875
10915 10917 10919 10922 10924 10926 10929 10931 10934 10936 10938 10940 10942 10944 10946 10948 10950 10951 10952 10952 10953 10954 10955 10957 10957 10956 10956 10958 10959 10960 10959 10959 10959 10959 10959 10959 10959 10957 10956 10954 10953 10953 10952 10951 10949 10947 10947 10947 10946 10945 10943 10942 10941 10940 10938 10936 10933 10931 10930 10926 10921 10915 10911 10912 10911 10908 10908 10909 10908 10905 10902 10899 10896 10893 10890 10886 10883 10882 10882 10880 10879 10877 10875 10873 10870
10911 10913 10915 10918 10920 10922 10925 10927 10929 10931 10933 10935 10937 10939 10941 10944 10945 10946 10947 10947 10948 10949 10950 10951 10952 10952 10952 10952 10954 10955 10955 10955 10955 10955 10955 10955 10955 10954 10953 10951 10951 10951 10950 10948 10947 10945 10945 10945 10944 10943 10941 10939 10939 10937 10935 10933 10931 10928 10927 10924 10918 10911 10908 10907 10905 10902 10902 10903 10901 10898 10896 10892 10888 10885 10883 10880 10876 10876 10876 10876 10874 10872 10869 10867 10865
10907 10909 10911 10913 10915 10918 10920 10922 10924 10926 10928 10930 10932 10935 10936 10938 10940 10941 10942 10942 10942 10944 10945 10946 10947 10947 10947 10948 10948 10950 10950 10951 10951 10951 10952 10951 10950 10949 10948 10947 10947 10947 10946 10945 10944 10943 10943 10942 10941 10941 10939 10937 10936 10934 10932 10931 10928 10925 10924 10921 10915 10909 10905 10903 10898 10896 10897 10898 10895 10892 10890 10887 10883 10880 10878 10874 10872 10871 10871 10870 10869 10867 10865 10863 10863
10902 10904 10906 10908 10910 10912 10914 10916 10919 10921 10923 10925 10927 10929 10931 10932 10934 10935 10936 10937 10937 10938 10939 10940 10941 10942 10943 10943 10943 10944 10945 10946 10946 10946 10946 10946 10945 10944 10943 10942 10943 10943 10941 10941 10940 10940 10940 10939 10938 10937 10936 10934 10933 10931 10929 10927 10924 10922 10921 10918 10914 10909 10905 10900 10895 10892 10891 10891 10889 10887 10885 10883 10880 10877 10874 10871 10868 10867 10866 10864 10863 10862 10861 10862 10861
10896 10899 10901 10902 10905 10907 10909 10911 10913 10915 10918 10920 10921 10923 10925 10926 10928 10929 10930 10931 10932 10933 10934 10935 10935 10936 10937 10937 10938 10938 10939 10940 10941 10941 10941 10940 10939 10938 10938 10938 10938 10938 10937 10936 10936 10936 10936 10934 10933 10932 10931 10930 10928 10926 10924 10922 10921 10919 10917 10916 10915 10909 10903 10898 10894 10890 10886 10883 10881 10880 10878 10878 10876 10874 10870 10867 10865 10863 10862 10860 10859 10858 10858 10860 10859
10891 10893 10895 10897 10899 10902 10904 10907 10909 10911 10912 10914 10916 10918 10919 10921 10922 10924 10925 10926 10926 10927 10928 10929 10930 10930 10931 10932 10932 10933 10934 10935 10936 10935 10935 10934 10933 10933 10933 10934 10934 10934 10933 10931 10931 10931 10931 10929 10928 10926 10926 10925 10923 10921 10919 10917 10916 10914 10912 10914 10912 10904 10897 10894 10892 10888 10882 10877 10875 10874 10873 10872 10872 10869 10866 10863 10861 10858 10856 10854 10854 10853 10852 10852 10851
10886 10888 10890 10892 10895 10897 10899 10902 10904 10906 10907 10909 10911 10912 10914 10916 10917 10918 10920 10921 10921 10922 10922 10923 10924 10924 10925 10926 10926 10927 10929 10930 10930 10929 10928 10927 10928 10928 10929 10929 10930 10930 10929 10927 10926 10927 10925 10924 10923 10921 10920 10919 10918 10916 10914 10911 10910 10908 10906 10908 10906 10897 10890 10889 10890 10887 10881 10874 10872 10871 10869 10867 10867 10866 10864 10860 10854 10847 10843 10843 10844 10844 10843 10843 10842
10880 10883 10885 10887 10890 10892 10894 10896 10898 10900 10902 10904 10906 10907 10909 10911 10912 10913 10914 10915 10916 10916 10917 10917 10918 10918 10919 10919 10920 10922 10923 10924 10924 10922 10921 10922 10923 10924 10924 10925 10925 10925 10924 10922 10922 10921 10920 10919 10918 10916 10914 10913 10912 10910 10908 10906 10904 10902 10900 10900 10899 10893 10887 10883 10882 10881 10877 10871 10869 10868 10865 10863 10863 10863 10857 10849 10841 10835 10833 10833 10835 10836 10836 10835 10835
10873 10876 10878 10881 10883 10886 10888 10890 10892 10894 10896 10898 10900 10902 10903 10905 10907 10908 10909 10910 10910 10910 10911 10911 10912 10912 10912 10913 10914 10915 10917 10918 10917 10916 10916 10917 10918 10919 10919 10920 10920 10920 10920 10918 10917 10916 10915 10914 10912 10910 10909 10907 10906 10904 10902 10900 10898 10896 10893 10891 10891 10888 10884 10880 10876 10874 10870 10866 10864 10863 10860 10858 10858 10855 10847 10838 10832 10830 10827 10825 10827 10830 10830 10829 10829
10866 10869 10871 10873 10876 10879 10881 10883 10885 10887 10889 10892 10894 10896 10898 10899 10901 10902 10903 10904 10904 10905 10905 10906 10906 10906 10907 10907 10908 10910 10911 10911 10910 10910 10910 10911 10912 10913 10914 10914 10914 10914 10914 10913 10911 10910 10909 10908 10906 10905 10903 10901 10900 10898 10896 10894 10892 10889 10886 10883 10882 10881 10879 10876 10872 10868 10865 10862 10859 10856 10853 10851 10851 10848 10841 10834 10830 10827 10821 10818 10819 10820 10820 10823 10824
10859 10862 10864 10866 10869 10871 10874 10876 10878 10881 10883 10886 10889 10891 10892 10893 10894 10896 10897 10898 10898 10899 10899 10900 10900 10900 10901 10901 10902 10904 10905 10905 10905 10904 10905 10905 10906 10907 10908 10908 10908 10908 10907 10907 10906 10904 10903 10902 10900 10899 10898 10896 10894 10892 10891 10889 10886 10883 10880 10877 10875 10873 10871 10869 10866 10862 10859 10856 10853 10849 10846 10844 10843 10840 10835 10830 10825 10820 10814 10812 10812 10811 10812 10814 10814
10853 10855 10858 10860 10862 10864 10867 10869 10871 10874 10877 10880 10882 10883 10885 10886 10888 10889 10890 10891 10892 10892 10893 10894 10894 10894 10895 10895 10897 10898 10899 10899 10900 10900 10899 10899 10900 10901 10901 10902 10902 10902 10901 10900 10900 10898 10897 10896 10894 10893 10892 10891 10889 10887 10885 10883 10881 10878 10875 10872 10868 10865 10863 10861 10859 10856 10852 10849 10845 10842 10839 10837 10834 10831 10828 10824 10820 10814 10808 10805 10804 10804 10806 10806 10803
10848 10850 10852 10854 10856 10858 10860 10862 10865 10867 10870 10872 10874 10876 10878 10880 10882 10883 10884 10884 10885 10886 10886 10887 10887 10888 10889 10890 10891 10892 10893 10893 10894 10894 10894 10894 10894 10894 10895 10896 10896 10895 10895 10894 10893 10892 10891 10890 10888 10887 10886 10885 10884 10882 10880 10878 10876 10873 10870 10866 10862 10859 10855 10852 10850 10848 10845 10841 10837 10833 10830 10828 10825 10822 10819 10816 10813 10808 10803 10799 10796 10796 10798 10798 10796
10843 10844 10846 10848 10850 10852 10854 10856 10858 10860 10863 10865 10867 10869 10871 10873 10875 10876 10877 10878 10879 10879 10880 10880 10881 10882 10883 10884 10885 10886 10886 10887 10888 10888 10888 10888 10888 10888 10888 10888 10888 10888 10888 10887 10887 10886 10885 10883 10882 10881 10880 10879 10878 10876 10874 10872 10870 10867 10864 10861 10856 10851 10848 10845 10841 10839 10837 10833 10829 10825 10821 10818 10816 10813 10810 10807 10804 10800 10796 10792 10789 10788 10789 10790 10790
10838 10839 10841 10842 10844 10846 10848 10850 10851 10854 10856 10858 10860 10862 10864 10866 10868 10869 10870 10871 10872 10872 10873 10874 10875 10876 10877 10878 10878 10879 10880 10881 10881 10882 10882 10882 10882 10882 10882 10881 10881 10881 10880 10880 10880 10879 10878 10876 10875 10874 10873 10871 10870 10869 10867 10865 10862 10860 10857 10855 10850 10845 10841 10837 10834 10831 10828 10825 10822 10818 10813 10810 10807 10805 10802 10798 10795 10791 10788 10785 10782 10780 10780 10782 10783
10832 10833 10835 10836 10838 10840 10843 10844 10846 10848 10850 10852 10854 10856 10857 10859 10860 10862 10863 10864 10864 10865 10866 10868 10869 10870 10871 10871 10872 10873 10874 10874 10875 10875 10876 10876 10876 10876 10876 10875 10874 10874 10873 10873 10872 10871 10870 10869 10868 10867 10865 10863 10862 10860 10858 10857 10855 10852 10849 10847 10844 10840 10835 10831 10827 10823 10820 10817 10814 10810 10806 10803 10800 10798 10795 10792 10787 10783 10778 10775 10773 10771 10770 10771 10772
10826 10827 10829 10831 10833 10835 10837 10839 10840 10843 10845 10847 10848 10850 10851 10852 10854 10855 10856 10857 10857 10858 10860 10862 10863 10863 10864 10864 10865 10866 10867 10868 10868 10869 10869 10869 10869 10869 10869 10868 10867 10867 10866 10865 10865 10864 10863 10862 10860 10859 10858 10855 10854 10853 10851 10849 10847 10845 10842 10839 10836 10833 10829 10825 10821 10817 10813 10809 10806 10802 10798 10795 10792 10789 10788 10785 10781 10776 10772 10767 10763 10761 10760 10760 10761
10819 10821 10823 10826 10828 10830 10832 10834 10835 10837 10839 10841 10842 10843 10845 10846 10847 10848 10849 10850 10851 10852 10854 10855 10856 10856 10856 10857 10858 10859 10860 10861 10862 10863 10863 10863 10862 10861 10861 10861 10860 10859 10859 10858 10857 10856 10855 10854 10853 10851 10849 10847 10846 10844 10843 10841 10839 10837 10834 10832 10828 10825 10822 10818 10814 10810 10806 10802 10798 10795 10791 10788 10784 10781 10779 10777 10773 10769 10766 10762 10757 10753 10751 10752 10752
10813 10815 10818 10820 10822 10825 10827 10828 10830 10831 10833 10834 10835 10837 10839 10840 10840 10841 10842 10843 10844 10846 10847 10848 10849 10849 10849 10850 10851 10852 10853 10854 10855 10856 10855 10855 10854 10853 10853 10853 10852 10852 10851 10850 10849 10848 10848 10846 10845 10843 10841 10839 10838 10836 10834 10833 10831 10828 10826 10823 10820 10817 10814 10810 10806 10802 10799 10795 10791 10787 10784 10780 10777 10774 10771 10768 10766 10762 10758 10755 10751 10746 10743 10744 10746
10806 10809 10812 10814 10816 10818 10820 10821 10823 10824 10826 10827 10828 10830 10831 10832 10833 10834 10835 10836 10837 10839 10840 10842 10842 10842 10843 10843 10844 10845 10846 10847 10847 10847 10847 10846 10845 10845 10845 10844 10844 10844 10843 10842 10841 10840 10839 10838 10837 10835 10832 10831 10829 10828 10826 10824 10822 10819 10817 10814 10812 10809 10806 10802 10798 10794 10791 10787 10783 10779 10776 10773 10770 10767 10763 10760 10757 10753 10748 10746 10744 10740 10736 10737 10740
10800 10802 10805 10807 10809 10810 10812 10813 10815 10816 10819 10820 10822 10823 10824 10825 10826 10827 10828 10829 10830 10831 10833 10834 10835 10835 10835 10836 10836 10837 10838 10838 10838 10838 10838 10837 10837 10836 10836 10836 10836 10835 10835 10834 10833 10831 10830 10829 10828 10826 10824 10822 10820 10819 10817 10814 10812 10810 10808 10805 10803 10800 10797 10793 10789 10785 10782 10779 10775 10771 10769 10766 10763 10759 10755 10752 10750 10745 10741 10738 10737 10734 10731 10731 10734
10792 10794 10797 10799 10800 10802 10804 10805 10807 10808 10810 10812 10814 10815 10816 10817 10818 10819 10820 10820 10821 10823 10824 10825 10826 10826 10827 10827 10828 10829 10830 10830 10830 10829 10829 10829 10828 10827 10827 10827 10827 10827 10826 10825 10823 10822 10821 10820 10819 10816 10814 10812 10810 10809 10807 10804 10802 10801 10798 10795 10793 10790 10787 10784 10781 10777 10773 10770 10767 10763 10761 10759 10756 10752 10748 10745 10742 10739 10734 10732 10731 10729 10726 10726 10729
10784 10786 10788 10790 10791 10793 10795 10797 10798 10799 10801 10803 10804 10806 10807 10808 10809 10810 10811 10811 10812 10814 10815 10816 10817 10818 10819 10820 10820 10821 10821 10821 10821 10820 10820 10819 10819 10818 10819 10819 10818 10817 10817 10815 10814 10812 10811 10810 10808 10806 10804 10801 10799 10798 10797 10794 10792 10791 10789 10786 10783 10781 10778 10775 10771 10767 10764 10761 10757 10754 10752 10750 10748 10745 10740 10737 10733 10730 10726 10723 10722 10723 10722 10722 10724
10776 10778 10780 10781 10782 10784 10786 10787 10789 10790 10792 10793 10795 10797 10798 10800 10801 10802 10803 10804 10804 10805 10806 10806 10807 10809 10810 10810 10811 10811 10811 10811 10811 10811 10811 10810 10809 10809 10809 10809 10808 10807 10806 10805 10804 10803 10801 10799 10798 10796 10794 10791 10789 10788 10786 10784 10783 10781 10779 10776 10773 10770 10767 10764 10761 10758 10755 10752 10749 10745 10742 10741 10740 10737 10733 10730 10727 10724 10721 10717 10715 10716 10717 10717 10718
10767 10769 10771 10772 10774 10775 10776 10778 10779 10780 10782 10784 10786 10788 10790 10791 10793 10794 10795 10796 10796 10796 10796 10796 10797 10799 10800 10800 10801 10801 10801 10801 10801 10801 10801 10800 10800 10799 10799 10798 10797 10796 10796 10795 10794 10792 10790 10788 10787 10785 10783 10780 10778 10777 10775 10774 10773 10771 10768 10765 10762 10759 10756 10754 10751 10747 10745 10742 10740 10736 10733 10732 10731 10729 10726 10723 10720 10718 10716 10712 10709 10708 10709 10710 10711
10758 10759 10761 10763 10764 10766 10767 10768 10769 10771 10773 10775 10777 10779 10781 10783 10784 10785 10786 10786 10786 10786 10786 10787 10788 10789 10790 10791 10791 10792 10792 10792 10791 10791 10790 10790 10790 10789 10788 10787 10786 10785 10784 10783 10783 10781 10779 10777 10775 10774 10772 10769 10767 10766 10764 10763 10762 10760 10758 10755 10752 10749 10746 10743 10740 10738 10735 10732 10730 10727 10724 10721 10720 10719 10717 10715 10712 10709 10707 10705 10702 10701 10702 10702 10703
10747 10748 10750 10752 10754 10756 10757 10759 10760 10762 10763 10765 10768 10770 10772 10774 10775 10776 10776 10776 10777 10777 10777 10777 10778 10779 10780 10780 10781 10781 10782 10782 10781 10781 10780 10780 10779 10778 10777 10776 10775 10774 10773 10772 10771 10769 10767 10765 10763 10762 10760 10759 10757 10755 10753 10752 10750 10749 10746 10744 10741 10738 10735 10732 10729 10727 10724 10721 10719 10717 10714 10711 10709 10707 10705 10704 10703 10701 10699 10697 10695 10694 10694 10695 10695
10736 10738 10739 10741 10743 10746 10748 10750 10752 10753 10754 10756 10758 10760 10762 10763 10765 10766 10767 10767 10767 10767 10767 10767 10768 10768 10768 10769 10769 10770 10770 10770 10770 10770 10769 10769 10768 10767 10766 10764 10763 10762 10761 10760 10758 10756 10754 10753 10751 10750 10748 10747 10746 10744 10742 10740 10739 10737 10735 10733 10730 10727 10724 10721 10718 10716 10714 10711 10708 10706 10704 10702 10699 10696 10695 10694 10694 10693 10691 10689 10687 10687 10687 10687 10687
10725 10727 10729 10731 10733 10735 10738 10740 10741 10743 10744 10746 10747 10748 10750 10752 10753 10754 10756 10757 10757 10757 10758 10757 10757 10758 10757 10757 10757 10757 10757 10758 10757 10757 10756 10756 10755 10755 10754 10752 10751 10750 10749 10748 10746 10744 10742 10741 10740 10738 10736 10735 10734 10732 10730 10728 10726 10725 10723 10721 10719 10716 10713 10710 10708 10705 10703 10700 10698 10695 10693 10691 10689 10686 10685 10684 10683 10683 10683 10682 10680 10678 10678 10678 10678
10714 10717 10719 10721 10723 10725 10727 10728 10730 10732 10733 10734 10736 10737 10739 10740 10742 10743 10744 10745 10746 10746 10747 10747 10747 10747 10747 10746 10746 10746 10746 10745 10745 10745 10744 10744 10743 10743 10742 10740 10739 10738 10737 10736 10734 10732 10731 10730 10728 10726 10724 10722 10721 10720 10718 10716 10714 10712 10711 10709 10707 10704 10702 10699 10697 10695 10693 10690 10688 10685 10683 10681 10679 10677 10675 10674 10673 10673 10673 10673 10672 10671 10670 10669 10669
10703 10706 10709 10711 10713 10714 10715 10717 10719 10720 10722 10724 10725 10726 10728 10729 10730 10731 10732 10733 10733 10734 10734 10735 10735 10735 10735 10735 10734 10734 10734 10734 10733 10733 10733 10733 10732 10732 10730 10729 10727 10726 10725 10724 10723 10721 10719 10718 10716 10714 10712 10710 10709 10707 10705 10703 10701 10699 10698 10697 10695 10692 10690 10687 10685 10683 10681 10679 10677 10675 10672 10670 10669 10667 10666 10664 10663 10662 10662 10662 10662 10662 10661 10661 10660
10691 10694 10697 10700 10701 10702 10704 10706 10707 10709 10711 10713 10714 10715 10717 10718 10719 10720 10720 10721 10721 10721 10721 10722 10722 10722 10722 10722 10722 10721 10721 10721 10721 10721 10721 10721 10720 10720 10719 10718 10716 10715 10713 10712 10711 10710 10708 10706 10704 10702 10700 10698 10696 10695 10693 10691 10689 10687 10685 10684 10682 10680 10678 10675 10673 10671 10670 10668 10666 10664 10662 10660 10659 10657 10655 10653 10651 10650 10649 10650 10651 10651 10651 10651 10650
10679 10682 10684 10687 10689 10691 10693 10695 10696 10698 10700 10701 10703 10704 10705 10706 10707 10708 10708 10709 10709 10709 10709 10709 10709 10709 10709 10709 10709 10709 10709 10708 10708 10708 10708 10708 10707 10707 10707 10706 10705 10703 10701 10700 10698 10696 10695 10693 10691 10689 10688 10686 10684 10682 10680 10678 10676 10674 10672 10671 10669 10666 10664 10663 10661 10659 10658 10656 10655 10653 10652 10650 10649 10647 10645 10643 10641 10639 10637 10636 10637 10637 10638 10638 10638
10668 10670 10672 10674 10677 10679 10682 10684 10685 10687 10688 10689 10691 10692 10693 10694 10695 10695 10696 10696 10697 10697 10697 10697 10698 10698 10698 10697 10697 10696 10696 10696 10695 10695 10695 10695 10694 10694 10693 10692 10691 10690 10689 10687 10685 10682 10681 10679 10677 10675 10674 10673 10671 10669 10667 10665 10663 10660 10658 10657 10656 10654 10652 10650 10649 10647 10645 10645 10644 10642 10641 10641 10639 10637 10635 10633 10631 10629 10627 10624 10623 10623 10623 10623 10624